Location: Albany
(35.0000°S, 118.0000°E)
Time: 17:15:43
(UTC-05:00)

CZ-4B R/B - Visible Passes

Search period start: 20 December 2014 00:00
Search period end: 30 December 2014 00:00
Orbit: 493 x 671 km, 97.6° (Epoch: 19 December)

Date Brightness Start Highest point End Pass type
(mag) Time Alt. Az. Time Alt. Az. Time Alt. Az.
20 Dec 5.9 13:25:56 10° ENE 13:28:52 17° ESE 13:31:46 10° SSE visible
20 Dec 3.7 14:59:33 10° NNW 15:03:52 40° W 15:08:09 10° SSW visible
21 Dec 5.7 13:31:10 10° ENE 13:34:25 19° ESE 13:37:36 10° SSE visible
21 Dec 3.9 15:05:18 10° NNW 15:09:29 35° W 15:13:37 10° SSW visible
22 Dec 5.5 13:36:27 10° ENE 13:39:57 22° ESE 13:43:23 10° SSE visible
22 Dec 4.0 15:11:04 10° NNW 15:15:05 30° W 15:19:03 10° SW visible
23 Dec 5.3 13:41:46 10° NE 13:45:28 25° ESE 13:49:06 10° SSE visible
23 Dec 4.2 15:16:52 10° NNW 15:20:41 26° W 15:24:25 10° SW visible
24 Dec 5.1 13:47:06 10° NE 13:50:59 29° ESE 13:54:46 10° SSE visible
25 Dec 4.8 13:52:27 10° NE 13:56:29 33° ESE 14:00:24 10° S visible
26 Dec 4.6 13:57:49 10° NE 14:01:58 37° ESE 14:06:00 10° S visible
27 Dec 4.3 14:03:12 10° NE 14:07:27 43° ESE 14:11:34 10° S visible
28 Dec 4.0 14:08:35 10° NNE 14:12:55 50° ESE 14:17:06 10° S visible
29 Dec 3.7 14:14:00 10° NNE 14:18:22 59° ESE 14:22:35 10° S visible
